timestamp,wind_dir_avg,wind_spd_avg,wind_spd_max_dir,wind_spd_gust,battery_voltage,lat,long
2023-03-26 00:04:00+00:00,13.0,12.41,16.0,14.65,12.41,47.59359,-54.27349
2023-03-26 00:14:00+00:00,16.0,11.87,10.0,13.28,12.33,47.59359,-54.27349
2023-03-26 00:24:00+00:00,21.0,13.38,32.0,15.79,12.33,47.59359,-54.27349
2023-03-26 00:34:00+00:00,20.0,12.21,19.0,14.73,12.33,47.59359,-54.27349
2023-03-26 00:44:00+00:00,14.0,11.46,14.0,13.84,12.33,47.59359,-54.27349
2023-03-26 00:54:00+00:00,15.0,10.26,14.0,12.17,12.33,47.59359,-54.27349
2023-03-26 01:04:00+00:00,12.0,9.32,4.0,11.11,12.33,47.59359,-54.27349
2023-03-26 01:14:00+00:00,7.0,7.66,5.0,9.1,12.25,47.59359,-54.27349
2023-03-26 01:24:00+00:00,5.0,9.44,3.0,11.26,12.25,47.59359,-54.27349
2023-03-26 01:34:00+00:00,4.0,10.18,359.0,12.36,12.25,47.59359,-54.27349
2023-03-26 01:44:00+00:00,11.0,10.83,15.0,13.14,12.25,47.59359,-54.27349
2023-03-26 01:54:00+00:00,9.0,10.66,2.0,12.44,12.25,47.59359,-54.27349
2023-03-26 02:04:00+00:00,6.0,10.32,9.0,14.03,12.25,47.59359,-54.27349
2023-03-26 02:14:00+00:00,9.0,8.22,358.0,10.77,12.25,47.59359,-54.27349
2023-03-26 02:24:00+00:00,3.0,9.92,3.0,12.22,12.25,47.59359,-54.27349
2023-03-26 02:34:00+00:00,2.0,11.48,3.0,13.04,12.25,47.59359,-54.27349
2023-03-26 02:44:00+00:00,0.0,11.56,1.0,12.68,12.25,47.59359,-54.27349
2023-03-26 02:54:00+00:00,356.0,11.17,358.0,12.97,12.25,47.59359,-54.27349
2023-03-26 03:04:00+00:00,359.0,11.27,359.0,13.53,12.25,47.59359,-54.27349
2023-03-26 03:14:00+00:00,357.0,12.78,1.0,14.82,12.25,47.59359,-54.27349
2023-03-26 03:24:00+00:00,354.0,9.84,1.0,11.0,12.25,47.59359,-54.27349
2023-03-26 03:34:00+00:00,1.0,10.5,357.0,11.78,12.25,47.59359,-54.27349
2023-03-26 03:44:00+00:00,357.0,11.77,4.0,13.88,12.25,47.59359,-54.27349
2023-03-26 03:54:00+00:00,4.0,13.1,10.0,15.79,12.25,47.59359,-54.27349
2023-03-26 04:04:00+00:00,9.0,10.13,4.0,12.81,12.25,47.59359,-54.27349
2023-03-26 04:14:01+00:00,2.0,12.51,7.0,14.33,12.17,47.59359,-54.27349
2023-03-26 04:24:01+00:00,2.0,12.49,3.0,14.56,12.17,47.59359,-54.27349
2023-03-26 04:34:01+00:00,6.0,13.77,4.0,15.99,12.17,47.59359,-54.27349
2023-03-26 04:44:01+00:00,11.0,14.91,12.0,17.6,12.17,47.59359,-54.27349
2023-03-26 04:54:01+00:00,8.0,12.95,6.0,15.32,12.17,47.59359,-54.27349
2023-03-26 05:04:01+00:00,10.0,11.24,11.0,12.85,12.17,47.59359,-54.27349
2023-03-26 05:14:00+00:00,16.0,11.57,10.0,13.78,12.17,47.59359,-54.27349
2023-03-26 05:24:00+00:00,20.0,12.81,25.0,14.7,12.17,47.59359,-54.27349
2023-03-26 05:34:00+00:00,20.0,14.0,23.0,16.23,12.17,47.59359,-54.27349
2023-03-26 05:44:00+00:00,3.0,9.83,5.0,11.43,12.17,47.59359,-54.27349
2023-03-26 05:54:00+00:00,2.0,10.57,1.0,12.06,12.17,47.59359,-54.27349
2023-03-26 06:04:00+00:00,10.0,7.85,16.0,10.14,12.17,47.59359,-54.27349
2023-03-26 06:14:00+00:00,16.0,9.68,18.0,12.13,12.17,47.59359,-54.27349
2023-03-26 06:24:00+00:00,20.0,9.98,17.0,11.42,12.17,47.59359,-54.27349
2023-03-26 06:34:00+00:00,23.0,9.33,37.0,11.13,12.17,47.59359,-54.27349
2023-03-26 06:44:00+00:00,18.0,8.64,14.0,11.0,12.17,47.59359,-54.27349
2023-03-26 06:54:00+00:00,17.0,8.91,16.0,10.27,12.17,47.59359,-54.27349
2023-03-26 07:04:00+00:00,17.0,9.75,16.0,10.87,12.17,47.59359,-54.27349
2023-03-26 07:14:00+00:00,16.0,8.93,12.0,10.37,12.17,47.59359,-54.27349
2023-03-26 07:24:00+00:00,16.0,9.86,15.0,11.03,12.17,47.59359,-54.27349
2023-03-26 07:34:00+00:00,18.0,9.05,16.0,10.25,12.17,47.59359,-54.27349
2023-03-26 07:44:00+00:00,14.0,8.53,19.0,9.97,12.17,47.59359,-54.27349
2023-03-26 07:54:00+00:00,16.0,9.19,9.0,10.61,12.17,47.59359,-54.27349
2023-03-26 08:04:00+00:00,16.0,10.11,19.0,11.4,12.17,47.59359,-54.27349
2023-03-26 08:14:00+00:00,21.0,10.85,20.0,12.18,12.09,47.59359,-54.27349
2023-03-26 08:24:00+00:00,18.0,9.82,20.0,11.54,12.09,47.59359,-54.27349
2023-03-26 08:34:00+00:00,16.0,9.39,15.0,10.78,12.09,47.59359,-54.27349
2023-03-26 08:44:00+00:00,14.0,12.33,13.0,13.76,12.09,47.59359,-54.27349
2023-03-26 08:54:00+00:00,21.0,9.53,37.0,11.82,12.09,47.59359,-54.27349
2023-03-26 09:04:00+00:00,17.0,9.34,16.0,10.73,12.09,47.59359,-54.27349
2023-03-26 09:14:00+00:00,4.0,12.19,5.0,13.9,12.09,47.59359,-54.27349
2023-03-26 09:24:00+00:00,8.0,11.74,8.0,13.88,12.09,47.59359,-54.27349
2023-03-26 09:34:00+00:00,15.0,11.57,16.0,13.6,12.09,47.59359,-54.27349
2023-03-26 09:44:00+00:00,11.0,9.23,10.0,11.08,12.09,47.59359,-54.27349
2023-03-26 09:54:00+00:00,18.0,8.6,14.0,10.38,12.09,47.59359,-54.27349
2023-03-26 10:04:00+00:00,18.0,7.17,15.0,8.26,12.09,47.59359,-54.27349
2023-03-26 10:14:00+00:00,7.0,6.89,8.0,7.71,12.17,47.59359,-54.27349
2023-03-26 10:24:00+00:00,19.0,8.09,20.0,9.49,12.17,47.59359,-54.27349
2023-03-26 10:34:00+00:00,15.0,8.72,14.0,9.69,12.17,47.59359,-54.27349
2023-03-26 10:44:00+00:00,15.0,9.65,18.0,11.04,12.17,47.59359,-54.27349
2023-03-26 10:54:00+00:00,12.0,8.35,15.0,9.7,12.17,47.59359,-54.27349
2023-03-26 11:04:00+00:00,15.0,12.61,15.0,14.0,12.17,47.59359,-54.27349
2023-03-26 11:14:00+00:00,18.0,12.72,18.0,14.08,13.44,47.59359,-54.27349
2023-03-26 11:24:00+00:00,14.0,10.36,13.0,11.45,13.44,47.59359,-54.27349
2023-03-26 11:34:00+00:00,13.0,8.87,13.0,10.32,13.44,47.59359,-54.27349
2023-03-26 11:44:00+00:00,13.0,10.26,15.0,12.13,13.44,47.59359,-54.27349
2023-03-26 11:54:00+00:00,13.0,10.42,16.0,12.33,13.44,47.59359,-54.27349
2023-03-26 12:04:00+00:00,354.0,11.48,354.0,13.07,13.44,47.59359,-54.27349
2023-03-26 12:14:00+00:00,4.0,11.86,4.0,14.18,13.76,47.59359,-54.27349
2023-03-26 12:24:00+00:00,10.0,9.87,13.0,12.14,13.76,47.59359,-54.27349
2023-03-26 12:34:00+00:00,17.0,10.39,17.0,12.69,13.76,47.59359,-54.27349
2023-03-26 12:44:00+00:00,11.0,10.08,13.0,11.51,13.76,47.59359,-54.27349
2023-03-26 12:54:00+00:00,12.0,8.61,17.0,10.46,13.76,47.59359,-54.27349
2023-03-26 13:04:00+00:00,5.0,9.75,4.0,11.5,13.76,47.59359,-54.27349
2023-03-26 13:14:00+00:00,11.0,8.77,16.0,9.74,14.24,47.59359,-54.27349
2023-03-26 13:24:00+00:00,4.0,10.97,5.0,12.42,14.24,47.59359,-54.27349
2023-03-26 13:34:00+00:00,4.0,10.57,7.0,12.41,14.24,47.59359,-54.27349
2023-03-26 13:44:00+00:00,8.0,9.89,6.0,11.24,14.24,47.59359,-54.27349
2023-03-26 13:54:00+00:00,4.0,9.04,5.0,10.88,14.24,47.59359,-54.27349
2023-03-26 14:04:00+00:00,7.0,8.34,4.0,9.49,14.24,47.59359,-54.27349
2023-03-26 14:14:00+00:00,17.0,9.07,19.0,10.58,13.76,47.59359,-54.27349
2023-03-26 14:24:00+00:00,17.0,9.45,15.0,10.61,13.76,47.59359,-54.27349
2023-03-26 14:34:00+00:00,15.0,9.99,14.0,11.37,13.76,47.59359,-54.27349
2023-03-26 14:44:00+00:00,18.0,8.34,19.0,9.33,13.76,47.59359,-54.27349
2023-03-26 14:54:00+00:00,15.0,9.5,17.0,10.5,13.76,47.59359,-54.27349
2023-03-26 15:04:00+00:00,16.0,9.54,16.0,10.55,13.76,47.59359,-54.27349
2023-03-26 15:14:00+00:00,20.0,8.51,20.0,9.74,14.24,47.59359,-54.27349
2023-03-26 15:24:00+00:00,14.0,11.54,11.0,13.29,14.24,47.59359,-54.27349
2023-03-26 15:34:00+00:00,22.0,8.73,21.0,9.44,14.24,47.59359,-54.27349
2023-03-26 15:44:00+00:00,16.0,8.53,13.0,10.15,14.24,47.59359,-54.27349
2023-03-26 15:54:00+00:00,22.0,7.59,21.0,8.75,14.24,47.59359,-54.27349
2023-03-26 16:04:00+00:00,26.0,8.84,23.0,9.73,14.24,47.59359,-54.27349
2023-03-26 16:14:00+00:00,41.0,10.82,48.0,12.59,13.92,47.59359,-54.27349
2023-03-26 16:24:00+00:00,25.0,6.81,24.0,7.63,13.92,47.59359,-54.27349
2023-03-26 16:34:00+00:00,23.0,5.9,23.0,6.73,13.92,47.59359,-54.27349
2023-03-26 16:44:00+00:00,32.0,7.94,34.0,8.44,13.92,47.59359,-54.27349
2023-03-26 16:54:00+00:00,25.0,6.07,26.0,6.67,13.92,47.59359,-54.27349
2023-03-26 17:04:00+00:00,32.0,7.56,32.0,8.35,13.92,47.59359,-54.27349
2023-03-26 17:14:00+00:00,48.0,7.02,65.0,10.58,13.84,47.59359,-54.27349
2023-03-26 17:24:00+00:00,64.0,8.05,69.0,10.6,13.84,47.59359,-54.27349
2023-03-26 17:34:00+00:00,56.0,5.81,66.0,8.22,13.84,47.59359,-54.27349
2023-03-26 17:44:00+00:00,45.0,5.37,44.0,6.13,13.84,47.59359,-54.27349
2023-03-26 17:54:00+00:00,49.0,3.37,49.0,3.9,13.84,47.59359,-54.27349
2023-03-26 18:04:00+00:00,30.0,1.62,26.0,2.04,13.84,47.59359,-54.27349
2023-03-26 18:14:00+00:00,14.0,2.14,30.0,2.5,14.0,47.59359,-54.27349
2023-03-26 18:24:00+00:00,305.0,1.33,318.0,1.6,14.0,47.59359,-54.27349
2023-03-26 18:34:00+00:00,344.0,2.46,345.0,2.76,14.0,47.59359,-54.27349
2023-03-26 18:44:00+00:00,333.0,1.93,339.0,2.25,14.0,47.59359,-54.27349
2023-03-26 18:54:00+00:00,317.0,2.21,311.0,2.48,14.0,47.59359,-54.27349
2023-03-26 19:04:00+00:00,354.0,1.66,353.0,1.9,14.0,47.59359,-54.27349
2023-03-26 19:14:00+00:00,12.0,2.99,12.0,3.81,13.76,47.59359,-54.27349
2023-03-26 19:24:00+00:00,14.0,4.14,15.0,4.47,13.76,47.59359,-54.27349
2023-03-26 19:34:00+00:00,349.0,6.44,346.0,7.08,13.76,47.59359,-54.27349
2023-03-26 19:44:00+00:00,14.0,4.16,19.0,4.79,13.76,47.59359,-54.27349
2023-03-26 19:54:00+00:00,2.0,4.85,3.0,5.52,13.76,47.59359,-54.27349
2023-03-26 20:04:00+00:00,4.0,8.34,3.0,8.84,13.76,47.59359,-54.27349
2023-03-26 20:14:00+00:00,12.0,5.98,12.0,6.83,13.44,47.59359,-54.27349
2023-03-26 20:24:00+00:00,25.0,5.02,28.0,5.49,13.44,47.59359,-54.27349
2023-03-26 20:34:00+00:00,34.0,5.23,34.0,5.5,13.44,47.59359,-54.27349
2023-03-26 20:44:00+00:00,36.0,5.32,36.0,5.66,13.44,47.59359,-54.27349
2023-03-26 20:54:00+00:00,35.0,4.9,35.0,5.15,13.44,47.59359,-54.27349
2023-03-26 21:04:00+00:00,29.0,5.99,31.0,6.94,13.44,47.59359,-54.27349
2023-03-26 21:14:00+00:00,31.0,6.56,33.0,7.28,13.21,47.59359,-54.27349
2023-03-26 21:24:00+00:00,30.0,7.13,28.0,7.77,13.21,47.59359,-54.27349
2023-03-26 21:34:00+00:00,25.0,5.72,26.0,6.22,13.21,47.59359,-54.27349
2023-03-26 21:44:00+00:00,24.0,8.18,23.0,8.95,13.21,47.59359,-54.27349
2023-03-26 21:54:00+00:00,23.0,8.04,24.0,8.67,13.21,47.59359,-54.27349
2023-03-26 22:04:00+00:00,20.0,7.34,23.0,8.4,13.21,47.59359,-54.27349
2023-03-26 22:14:01+00:00,20.0,5.13,19.0,5.77,12.73,47.59359,-54.27349
2023-03-26 22:24:01+00:00,32.0,4.46,33.0,4.73,12.73,47.59359,-54.27349
2023-03-26 22:34:01+00:00,41.0,4.25,44.0,4.86,12.73,47.59359,-54.27349
2023-03-26 22:44:01+00:00,55.0,10.36,56.0,11.8,12.73,47.59359,-54.27349
2023-03-26 22:54:01+00:00,47.0,4.78,48.0,5.15,12.73,47.59359,-54.27349
2023-03-26 23:04:01+00:00,23.0,7.35,24.0,8.4,12.73,47.59359,-54.27349
2023-03-26 23:14:01+00:00,15.0,7.94,15.0,8.74,12.41,47.59359,-54.27349
2023-03-26 23:24:01+00:00,13.0,7.07,17.0,8.04,12.41,47.59359,-54.27349
2023-03-26 23:34:01+00:00,2.0,5.29,1.0,5.81,12.41,47.59359,-54.27349
2023-03-26 23:44:01+00:00,17.0,5.05,5.0,5.96,12.41,47.59359,-54.27349
2023-03-26 23:54:01+00:00,344.0,3.69,344.0,4.0,12.41,47.59359,-54.27349
